| time (UTC) | temp F | wind direction | speed knots | gust knots | rain 1hr in | rain 24hr in | rain mn in | humidity % | barometer mb |
| 20260510184112 | 47 | 0 | 0.0 | 0.0 | 0.00 | 0.00 | 0.00 | 1011.0 | |
| 20260510182111 | 48 | 0 | 0.9 | 3.5 | 0.00 | 0.00 | 0.00 | 1012.0 | |
| 20260510181111 | 49 | 0 | 0.9 | 0.9 | 0.00 | 0.00 | 0.00 | 1012.0 | |
| 20260510180111 | 48 | 0 | 0.0 | 0.0 | 0.00 | 0.00 | 0.00 | 1011.0 | |
| 20260510174111 | 50 | 0 | 0.0 | 1.7 | 0.00 | 0.00 | 0.00 | 1011.0 | |
| 20260510173111 | 51 | 0 | 0.9 | 1.7 | 0.00 | 0.00 | 0.00 | 1011.0 | |
| 20260510172112 | 52 | 0 | 0.9 | 0.0 | 0.00 | 0.00 | 0.00 | 1011.0 | |
| 20260510171112 | 52 | 0 | 3.5 | 4.3 | 0.00 | 0.00 | 0.00 | 1011.0 | |
| 20260510170112 | 52 | 0 | 4.3 | 5.2 | 0.00 | 0.00 | 0.00 | 1011.0 | |
| 20260510165111 | 51 | 0 | 0.0 | 3.5 | 0.00 | 0.00 | 0.00 | 1011.0 | |
| 20260510164111 | 51 | 0 | 0.0 | 3.5 | 0.00 | 0.00 | 0.00 | 1011.0 | |
| 20260510163111 | 49 | 0 | 0.9 | 1.7 | 0.00 | 0.00 | 0.00 | 1011.0 | |
| 20260510155111 | 52 | 0 | 1.7 | 3.5 | 0.00 | 0.00 | 0.00 | 1011.0 | |
| 20260510154112 | 53 | 0 | 2.6 | 3.5 | 0.00 | 0.00 | 0.00 | 1011.0 | |
| 20260510153111 | 56 | 0 | 0.0 | 3.5 | 0.00 | 0.00 | 0.00 | 1011.0 | |
| 20260510152112 | 59 | 0 | 0.0 | 5.2 | 0.00 | 0.00 | 0.00 | 1011.0 | |
| 20260510151111 | 63 | 0 | 1.7 | 1.7 | 0.00 | 0.00 | 0.00 | 1011.0 | |
| 20260510150111 | 60 | 0 | 2.6 | 4.3 | 0.00 | 0.00 | 0.00 | 1011.0 | |
| 20260510145111 | 54 | 0 | 2.6 | 3.5 | 0.00 | 0.00 | 0.00 | 1011.0 | |
| 20260510144111 | 55 | 0 | 1.7 | 2.6 | 0.00 | 0.00 | 0.00 | 1011.0 | |
| 20260510143111 | 57 | 0 | 1.7 | 4.3 | 0.00 | 0.00 | 0.00 | 1011.0 | |
| 20260510142111 | 60 | 0 | 1.7 | 3.5 | 0.00 | 0.00 | 0.00 | 1011.0 | |
| 20260510141112 | 58 | 0 | 0.9 | 3.5 | 0.00 | 0.00 | 0.00 | 1012.0 | |
| 20260510140111 | 55 | 0 | 0.9 | 4.3 | 0.00 | 0.00 | 0.00 | 1012.0 | |
| 20260510135112 | 59 | 0 | 2.6 | 3.5 | 0.00 | 0.00 | 0.00 | 1012.0 | |
| 20260510134113 | 53 | 0 | 1.7 | 0.9 | 0.00 | 0.00 | 0.00 | 1012.0 | |
| 20260510133112 | 52 | 0 | 1.7 | 3.5 | 0.00 | 0.00 | 0.00 | 1012.0 | |
| 20260510132112 | 54 | 0 | 3.5 | 3.5 | 0.00 | 0.00 | 0.00 | 1012.0 | |
| 20260510131111 | 54 | 0 | 0.9 | 2.6 | 0.00 | 0.00 | 0.00 | 1012.0 | |
| 20260510125111 | 59 | 0 | 2.6 | 7.0 | 0.00 | 0.00 | 0.00 | 1011.0 | |
| 20260510124112 | 56 | 0 | 3.5 | 2.6 | 0.00 | 0.00 | 0.00 | 1011.0 | |
| 20260510123112 | 49 | 0 | 1.7 | 4.3 | 0.00 | 0.00 | 0.00 | 1012.0 | |
| 20260510122112 | 48 | 0 | 7.0 | 12.2 | 0.00 | 0.00 | 0.00 | 1012.0 | |
| 20260510121112 | 50 | 0 | 5.2 | 8.7 | 0.00 | 0.00 | 0.00 | 1012.0 | |
| 20260510120113 | 52 | 0 | 5.2 | 7.0 | 0.00 | 0.00 | 0.00 | 1011.0 | |
| 20260510115112 | 54 | 0 | 4.3 | 6.1 | 0.00 | 0.00 | 0.00 | 1011.0 | |
| 20260510114112 | 55 | 0 | 6.1 | 8.7 | 0.00 | 0.00 | 0.00 | 1011.0 | |
| 20260510113112 | 57 | 0 | 5.2 | 7.8 | 0.00 | 0.00 | 0.00 | 1011.0 | |
| 20260510112112 | 58 | 0 | 1.7 | 3.5 | 0.00 | 0.00 | 0.00 | 1011.0 | |
| 20260510111112 | 59 | 0 | 4.3 | 1.7 | 0.00 | 0.00 | 0.00 | 1011.0 | |
| 20260510110112 | 60 | 0 | 7.8 | 7.8 | 0.00 | 0.00 | 0.00 | 1011.0 | |
| 20260510105112 | 64 | 0 | 6.1 | 4.3 | 0.00 | 0.00 | 0.00 | 1011.0 | |
| 20260510104112 | 62 | 0 | 5.2 | 6.1 | 0.00 | 0.00 | 0.00 | 1011.0 | |
| 20260510103112 | 60 | 0 | 2.6 | 6.1 | 0.00 | 0.00 | 0.00 | 1012.0 | |
| 20260510102112 | 59 | 0 | 2.6 | 3.5 | 0.00 | 0.00 | 0.00 | 1012.0 | |
| 20260510101112 | 61 | 0 | 4.3 | 7.8 | 0.00 | 0.00 | 0.00 | 1012.0 | |
| 20260510100112 | 66 | 0 | 4.3 | 6.1 | 0.00 | 0.00 | 0.00 | 1012.0 | |
| 20260510093112 | 59 | 0 | 4.3 | 7.0 | 0.00 | 0.00 | 0.00 | 1012.0 | |
| 20260510092112 | 59 | 0 | 7.0 | 7.0 | 0.00 | 0.00 | 0.00 | 1012.0 | |
| 20260510091112 | 56 | 0 | 4.3 | 7.0 | 0.00 | 0.00 | 0.00 | 1012.0 | |
| 20260510090112 | 57 | 0 | 4.3 | 4.3 | 0.00 | 0.00 | 0.00 | 1012.0 | |
| 20260510085112 | 54 | 0 | 1.7 | 6.1 | 0.00 | 0.00 | 0.00 | 1012.0 | |
| 20260510084112 | 54 | 0 | 4.3 | 4.3 | 0.00 | 0.00 | 0.00 | 1012.0 | |
| 20260510083112 | 54 | 0 | 9.6 | 7.0 | 0.00 | 0.00 | 0.00 | 1012.0 | |
| 20260510082112 | 54 | 0 | 4.3 | 5.2 | 0.00 | 0.00 | 0.00 | 1013.0 | |
| 20260510081112 | 55 | 0 | 0.9 | 2.6 | 0.00 | 0.00 | 0.00 | 1012.0 | |
| 20260510080112 | 53 | 0 | 1.7 | 2.6 | 0.00 | 0.00 | 0.00 | 1013.0 | |
| 20260510075112 | 51 | 0 | 3.5 | 7.0 | 0.00 | 0.00 | 0.00 | 1013.0 | |
| 20260510074112 | 51 | 0 | 2.6 | 4.3 | 0.00 | 0.00 | 0.00 | 1013.0 | |
| 20260510073112 | 50 | 0 | 0.0 | 2.6 | 0.00 | 0.00 | 0.00 | 1013.0 | |
| 20260510072112 | 50 | 0 | 1.7 | 1.7 | 0.00 | 0.00 | 0.00 | 1012.0 | |
| 20260510071112 | 49 | 0 | 3.5 | 3.5 | 0.00 | 0.00 | 0.00 | 1012.0 | |
| 20260510070112 | 48 | 0 | 2.6 | 3.5 | 0.00 | 0.00 | 0.00 | 1012.0 | |
| 20260510065112 | 48 | 0 | 0.0 | 2.6 | 0.00 | 0.00 | 0.00 | 1012.0 | |
| 20260510064112 | 48 | 0 | 1.7 | 1.7 | 0.00 | 0.00 | 0.00 | 1012.0 | |
| 20260510063113 | 47 | 0 | 0.0 | 1.7 | 0.00 | 0.00 | 0.00 | 1012.0 | |
| 20260510062112 | 48 | 0 | 0.9 | 1.7 | 0.00 | 0.00 | 0.00 | 1012.0 | |
| 20260510061112 | 47 | 0 | 0.9 | 2.6 | 0.00 | 0.00 | 0.00 | 1012.0 | |
| 20260510060112 | 47 | 0 | 0.9 | 1.7 | 0.00 | 0.00 | 0.00 | 1012.0 | |
| 20260510055112 | 47 | 0 | 0.0 | 0.9 | 0.00 | 0.00 | 0.00 | 1012.0 | |
| 20260510054112 | 46 | 0 | 0.0 | 0.9 | 0.00 | 0.00 | 0.00 | 1012.0 | |
| 20260510053113 | 46 | 0 | 0.0 | 1.7 | 0.00 | 0.00 | 0.00 | 1012.0 | |
| 20260510052112 | 46 | 0 | 0.0 | 0.0 | 0.00 | 0.00 | 0.00 | 1012.0 | |
| 20260510051112 | 46 | 0 | 0.0 | 0.0 | 0.00 | 0.00 | 0.00 | 1012.0 | |
| 20260510050112 | 45 | 0 | 0.0 | 0.0 | 0.00 | 0.00 | 0.00 | 1012.0 | |
| 20260510045112 | 45 | 0 | 0.0 | 0.0 | 0.00 | 0.00 | 0.00 | 1012.0 | |
| 20260510044113 | 45 | 0 | 0.0 | 0.0 | 0.00 | 0.00 | 0.00 | 1012.0 | |
| 20260510043112 | 45 | 0 | 0.0 | 0.0 | 0.00 | 0.00 | 0.00 | 1012.0 | |
| 20260510042112 | 44 | 0 | 0.0 | 0.0 | 0.00 | 0.00 | 0.00 | 1012.0 | |
| 20260510041113 | 44 | 0 | 0.0 | 0.0 | 0.00 | 0.00 | 0.00 | 1012.0 | |
| 20260510040112 | 44 | 0 | 0.0 | 0.0 | 0.00 | 0.00 | 0.00 | 1012.0 | |
| 20260510035112 | 43 | 0 | 0.0 | 0.9 | 0.00 | 0.00 | 0.00 | 1012.0 | |
| 20260510034112 | 43 | 0 | 0.0 | 0.0 | 0.00 | 0.00 | 0.00 | 1012.0 | |
| 20260510033112 | 42 | 0 | 0.0 | 0.0 | 0.00 | 0.00 | 0.00 | 1012.0 | |
| 20260510032112 | 43 | 0 | 0.0 | 0.0 | 0.00 | 0.00 | 0.00 | 1012.0 | |
| 20260510031113 | 43 | 0 | 0.0 | 0.0 | 0.00 | 0.00 | 0.00 | 1012.0 | |
| 20260510030113 | 43 | 0 | 0.0 | 0.0 | 0.00 | 0.00 | 0.00 | 1012.0 | |
| 20260510025113 | 44 | 0 | 0.0 | 0.0 | 0.00 | 0.00 | 0.00 | 1012.0 | |
| 20260510024113 | 44 | 0 | 0.0 | 0.9 | 0.00 | 0.00 | 0.00 | 1012.0 | |
| 20260510023113 | 44 | 0 | 0.0 | 0.0 | 0.00 | 0.00 | 0.00 | 1012.0 | |
| 20260510022113 | 44 | 0 | 0.0 | 0.0 | 0.00 | 0.00 | 0.00 | 1012.0 | |
| 20260510021112 | 45 | 0 | 0.0 | 0.0 | 0.00 | 0.00 | 0.00 | 1012.0 | |
| 20260510020112 | 45 | 0 | 0.0 | 0.0 | 0.00 | 0.00 | 0.00 | 1012.0 | |
| 20260510015112 | 45 | 0 | 0.0 | 0.9 | 0.00 | 0.00 | 0.00 | 1012.0 | |
| 20260510014112 | 45 | 0 | 0.0 | 0.9 | 0.00 | 0.00 | 0.00 | 1012.0 | |
| 20260510013113 | 45 | 0 | 1.7 | 1.7 | 0.00 | 0.00 | 0.00 | 1012.0 | |
| 20260510012112 | 46 | 0 | 0.0 | 0.9 | 0.00 | 0.00 | 0.00 | 1012.0 | |
| 20260510011113 | 45 | 0 | 0.0 | 0.9 | 0.00 | 0.00 | 0.00 | 1012.0 | |
| 20260510010113 | 45 | 0 | 0.0 | 0.0 | 0.00 | 0.00 | 0.00 | 1012.0 | |
| 20260510005112 | 45 | 0 | 0.0 | 0.9 | 0.00 | 0.00 | 0.00 | 1012.0 | |
| 20260510004112 | 45 | 0 | 0.0 | 0.0 | 0.00 | 0.00 | 0.00 | 1012.0 | |
| 20260510003112 | 46 | 0 | 0.0 | 0.9 | 0.00 | 0.00 | 0.00 | 1012.0 | |
| 20260510002112 | 46 | 0 | 0.0 | 0.0 | 0.00 | 0.00 | 0.00 | 1012.0 | |
| 20260510001113 | 47 | 0 | 0.0 | 0.9 | 0.00 | 0.00 | 0.00 | 1012.0 | |
| 20260510000113 | 47 | 0 | 0.0 | 1.7 | 0.00 | 0.00 | 0.00 | 1012.0 | |
| 20260509235112 | 48 | 0 | 3.5 | 3.5 | 0.00 | 0.00 | 0.00 | 1012.0 | |
| 20260509234112 | 48 | 0 | 1.7 | 1.7 | 0.00 | 0.00 | 0.00 | 1012.0 | |
| 20260509233112 | 48 | 0 | 0.0 | 0.0 | 0.00 | 0.00 | 0.00 | 1012.0 | |
| 20260509232112 | 48 | 0 | 0.9 | 1.7 | 0.00 | 0.00 | 0.00 | 1012.0 | |
| 20260509231112 | 48 | 0 | 0.9 | 4.3 | 0.00 | 0.00 | 0.00 | 1012.0 | |
| 20260509230112 | 49 | 0 | 1.7 | 3.5 | 0.00 | 0.00 | 0.00 | 1012.0 | |
| 20260509225112 | 50 | 0 | 1.7 | 2.6 | 0.00 | 0.00 | 0.00 | 1012.0 | |
| 20260509224112 | 50 | 0 | 1.7 | 3.5 | 0.00 | 0.00 | 0.00 | 1012.0 | |
| 20260509223112 | 49 | 0 | 0.0 | 1.7 | 0.00 | 0.00 | 0.00 | 1012.0 | |
| 20260509222112 | 49 | 0 | 0.9 | 1.7 | 0.00 | 0.00 | 0.00 | 1012.0 | |
| 20260509221112 | 48 | 0 | 0.0 | 1.7 | 0.00 | 0.00 | 0.00 | 1012.0 | |
| 20260509220112 | 48 | 0 | 0.9 | 0.9 | 0.00 | 0.00 | 0.00 | 1012.0 | |
| 20260509215112 | 48 | 0 | 3.5 | 4.3 | 0.00 | 0.00 | 0.00 | 1012.0 | |
| 20260509214112 | 49 | 0 | 0.0 | 1.7 | 0.00 | 0.00 | 0.00 | 1012.0 | |
| 20260509212112 | 50 | 0 | 0.0 | 1.7 | 0.00 | 0.00 | 0.00 | 1012.0 | |
| 20260509211112 | 50 | 0 | 0.9 | 2.6 | 0.00 | 0.00 | 0.00 | 1012.0 | |
| 20260509210112 | 50 | 0 | 1.7 | 0.0 | 0.00 | 0.00 | 0.00 | 1012.0 | |
| 20260509205112 | 50 | 0 | 0.9 | 2.6 | 0.00 | 0.00 | 0.00 | 1012.0 | |
| 20260509204112 | 51 | 0 | 0.9 | 1.7 | 0.00 | 0.00 | 0.00 | 1012.0 | |
| 20260509203112 | 51 | 0 | 0.0 | 2.6 | 0.00 | 0.00 | 0.00 | 1012.0 | |
| 20260509202112 | 50 | 0 | 0.9 | 1.7 | 0.00 | 0.00 | 0.00 | 1012.0 | |
| 20260509201112 | 51 | 0 | 0.9 | 3.5 | 0.00 | 0.00 | 0.00 | 1012.0 | |
| 20260509200112 | 51 | 0 | 0.9 | 1.7 | 0.00 | 0.00 | 0.00 | 1011.0 | |
| 20260509195112 | 51 | 0 | 0.9 | 1.7 | 0.00 | 0.00 | 0.00 | 1011.0 | |
| 20260509194112 | 51 | 0 | 1.7 | 2.6 | 0.00 | 0.00 | 0.00 | 1011.0 | |
| 20260509193112 | 52 | 0 | 0.9 | 0.9 | 0.00 | 0.00 | 0.00 | 1011.0 | |
| 20260509192112 | 52 | 0 | 2.6 | 1.7 | 0.00 | 0.00 | 0.00 | 1011.0 | |
| 20260509191112 | 52 | 0 | 0.0 | 2.6 | 0.00 | 0.00 | 0.00 | 1011.0 | |
| 20260509190112 | 52 | 0 | 0.9 | 3.5 | 0.00 | 0.00 | 0.00 | 1011.0 | |
| 20260509185112 | 52 | 0 | 0.9 | 2.6 | 0.00 | 0.00 | 0.00 | 1011.0 |